Tracking 19709 objects as of 19-Jun-2019
HD Live streaming from Space Station
objects crossing your sky now

SL-14 R/B

Track SL-14 R/B now!
10-day predictions


NORAD ID: 33505
Int'l Code: 2009-003B
Perigee: 525.5 km
Apogee: 562.1 km
Inclination: 82.4 °
Period: 95.4 minutes
Semi major axis: 6914 km
RCS: 4.113 m2 (large)
Launch date: January 30, 2009
Source: Commonwealth of Independent States (former USSR) (CIS)
Launch site: PLESETSK MISSILE AND SPACE COMPLEX (PKMTR)

Note: This is a ROCKET BODY
aabbcc
Your satellite tracking list
Your tracking list is empty




NASA's NSSDC Master Catalog

Two Line Element Set (TLE):
1 33505U 09003B   19169.63726017 -.00000111 +00000-0 -87417-5 0  9993
2 33505 082.3951 234.1251 0026418 181.8906 178.2228 15.09844721571169
Source of the keplerian elements: AFSPC